Tracking 27086 objects as of 22-Mar-2023
HD Live streaming from Space Station
objects crossing your sky now

SL-14 R/B

Track SL-14 R/B now!
10-day predictions
SL-14 R/B is classified as:


NORAD ID: 18153
Int'l Code: 1987-055B
Perigee: 609.8 km
Apogee: 639.6 km
Inclination: 82.5 °
Period: 97.1 minutes
Semi major axis: 6995 km
RCS: 4.7715 m2 (large)
Launch date: July 1, 1987
Source: Commonwealth of Independent States (former USSR) (CIS)
Launch site: PLESETSK MISSILE AND SPACE COMPLEX (PKMTR)

Note: This is a ROCKET BODY
Your satellite tracking list
Your tracking list is empty




NASA's NSSDC Master Catalog

Two Line Element Set (TLE):
1 18153U 87055B   23081.08938232  .00000658  00000-0  76448-4 0  9994
2 18153  82.4970 288.8531 0021294 355.5597   4.5425 14.83737732930245
Source of the keplerian elements: AFSPC